Simultaneous Nadir Overpasses (SNOs) Predictions

Prediction of SNOs between GOES-15 and NOAA-20 Satellite Orbit:

Table of predicted SNOs for the next 14.0 days since TLE Epoch: 12/31/2021
Index Date Time (GOES-15) GOES-15 Lat,Lon NOAA-20 Lat,Lon Distance(km) Time Diff (sec)
1 01/01/2022 10:04:27 -0.04,-128.16 0.41,-130.21 233.41 80
2 01/02/2022 09:48:21 -0.03,-128.18 -0.62,-125.68 285.91 80
3 01/03/2022 22:07:36 0.04,-128.21 -0.59,-130.97 314.77 80
4 01/04/2022 21:51:30 0.04,-128.23 0.44,-126.44 204.38 80
5 01/06/2022 10:10:37 -0.05,-128.26 0.72,-131.70 392.43 80
6 01/07/2022 09:54:31 -0.04,-128.27 -0.30,-127.17 126.70 80
7 01/08/2022 22:13:45 0.05,-128.30 -0.90,-132.46 474.03 80
8 01/09/2022 21:57:40 0.05,-128.32 0.13,-127.92 45.09 80
9 01/12/2022 09:58:01 -0.05,-128.36 0.00,-128.65 33.07 80
10 01/13/2022 09:41:54 -0.04,-128.37 -0.97,-124.11 485.62 80
